sat.trackr.live / text

‹ back to catalog

BEIDOU-3 M5 (C23)

NORAD 43581 · 2018-062A

PAYLOAD ACTIVE UNKNOWN

§ Identity

Operator
Country
PRC
Launch date
2018-07-29
Launch site
XICLF
Launch vehicle
Mass (kg)
RCS (m²)

Purposes: nav

External: N2YO · Heavens-Above · Gunter

§ Orbital elements

Epoch: 2026-05-25T00:25:59.835360Z

Period
773.24 min
Inclination
54.0837°
Eccentricity
0.0005266
Mean motion
1.86228616 rev/d
Perigee alt
21,513.6 km
Apogee alt
21,543.0 km
Semi-major
27,906.4 km
B*
0.0000e+0
RAAN
183.0913°
Arg perigee
288.8293°
Mean anomaly
71.1823°
Rev number
5,320

§ Raw data

BEIDOU-3 M5 (C23)1 43581U 18062A   26145.01805365  .00000061  00000+0  00000+0 0  99992 43581  54.0837 183.0913 0005266 288.8293  71.1823  1.86228616 53206

JSON: /api/v1/satellites/43581 · /tle

For live sub-satellite position, see the globe view (requires WebGL).

§ Visibility from observer

Set your observer location to see the next 7 days of passes ≥ 10°. The values pass through the URL so the page stays shareable.

No JS? Fill the form by hand. The geolocation button needs JavaScript.